Location: Kvarnån
(66.4000°N, 22.2667°E)
Time: 19:57:25
(UTC+00:00)

Daily predictions for brighter satellites

Satellite Brightness Start Highest point End
(mag) Time Altitude Azimuth Time Altitude Azimuth Time Altitude Azimuth
SPOT 1/Viking Rocket 3.9 15:49:17 10° SE 15:54:11 47° NE 15:59:07 10° NNW
YAOGAN 1 2.6 15:50:07 10° SE 15:54:20 56° ENE 15:58:33 10° NNW
COSMO-SKYMED 1 3.6 15:51:55 10° NNE 15:55:35 25° E 15:59:13 10° SSE
CZ-4B R/B 3.5 15:52:44 10° SSE 15:56:17 78° ENE 15:59:55 10° NNW
UNK 4.0 15:51:50 10° NNE 15:56:24 75° WNW 16:00:56 10° SSW
SJ-6B 3.4 15:54:07 10° ESE 15:57:31 33° NE 16:01:00 10° N
USA 281 3.8 15:53:26 10° NE 15:59:26 36° ESE 16:05:25 10° S
ADEOS Rocket 4.2 15:52:47 10° S 15:59:41 60° W 16:07:14 10° NNW
Cosmos 1452 Rocket 4.4 15:56:14 10° NW 16:01:23 55° WSW 16:06:30 10° SSE
Cosmos 2221 Rocket 4.3 15:58:12 10° NNW 16:02:12 32° NE 16:06:13 10° ESE
USA 186 3.2 16:00:56 10° E 16:03:07 18° NE 16:05:17 10° N
Cosmos 1908 3.2 15:59:49 10° S 16:03:12 46° E 16:06:37 10° NNE
Cosmos 1805 4.3 16:00:02 10° SW 16:03:32 45° WNW 16:07:03 10° NNE
CZ-4B R/B 3.7 16:01:13 10° ESE 16:04:55 32° NE 16:08:32 10° NNW
Cosmos 2278 3.7 15:59:19 10° NW 16:05:01 85° NE 16:10:42 10° SE
Cosmos 2219 Rocket 2.4 15:59:37 10° WNW 16:05:12 59° NNE 16:10:47 10° E
Meteor 1-24 Rocket 3.6 15:59:57 10° NNW 16:05:32 80° ENE 16:10:55 10° SSE
Cosmos 1825 2.0 16:02:25 10° NNW 16:05:36 49° ENE 16:08:46 10° SE
Cosmos 1500 Rocket 4.4 16:01:35 10° SW 16:05:48 53° WNW 16:10:06 10° NNE
GEOS 3 Rocket 3.8 16:01:00 10° ENE 16:06:07 63° SSE 16:11:13 10° WSW
USA 234 4.2 16:00:15 10° ESE 16:06:21 40° S 16:12:28 10° WSW
Cosmos 1933 Rocket 4.1 16:03:27 10° SSE 16:07:31 37° E 16:11:37 10° NNE
Cosmos 1328 4.4 16:05:06 10° N 16:08:34 32° NE 16:11:59 10° ESE
Cosmos 2360 Rocket 2.3 16:04:08 10° WNW 16:09:46 69° NNE 16:15:24 10° ESE
Cosmos 2369 4.2 16:05:49 10° NW 16:11:26 64° SW 16:17:01 10° SSE
Cosmos 1461 3.3 16:09:52 10° SW 16:13:24 39° SSE 16:16:50 11° E
Lacrosse 5 3.3 16:09:20 10° SW 16:13:35 27° SSE 16:17:49 10° ESE
Cosmos 1943 3.3 16:09:39 10° SW 16:15:22 88° NW 16:21:08 10° NE
Cosmos 2237 4.3 16:10:43 10° NW 16:16:27 86° SW 16:22:11 10° SE
SL-16 R/B 3.1 16:11:43 10° NNE 16:17:55 64° NW 16:24:04 10° SW
Okean-O 3.9 16:16:54 10° E 16:20:18 23° NE 16:23:48 10° NNW
Cosmos 2112 Rocket 4.2 16:15:26 10° SSW 16:20:39 55° ESE 16:25:52 10° NE
IGS 5A 4.1 16:17:52 10° S 16:21:52 59° WSW 16:25:54 10° NNW
SPOT 5 3.9 16:19:19 11° E 16:22:53 25° NE 16:26:44 10° NNW
Cosmos 1703 3.5 16:21:17 10° NNW 16:24:54 67° WSW 16:28:31 10° S
Resurs 01 Rocket 2.1 16:22:00 10° ESE 16:26:06 39° NE 16:30:12 10° NNW
NOSS 0 Rocket 4.2 16:21:40 10° WNW 16:27:53 64° N 16:33:36 12° E
SL-16 R/B 2.6 16:24:38 10° W 16:30:16 61° NNW 16:35:55 10° ENE
Cosmos 839 Rocket 4.1 16:24:06 10° W 16:30:46 87° S 16:36:26 13° E
JB-3 4.2 16:28:07 10° NNE 16:32:00 80° ESE 16:35:48 10° SSW
ARGOS Delta rocket 3.7 16:28:06 10° SSE 16:32:28 64° ENE 16:36:59 10° NNW
CZ-4 R/B 1.7 16:29:07 10° SE 16:32:59 46° ENE 16:36:51 10° NNW
Meteor 1-31 Rocket 3.4 16:30:41 10° S 16:34:17 56° WSW 16:37:54 10° NNW
Cosmos 1437 Rocket 2.9 16:30:55 10° NNW 16:34:25 44° ENE 16:37:54 10° SE
Meteor 2-5 Rocket 4.0 16:28:38 10° NNW 16:34:28 78° WSW 16:40:09 10° SSE
Cosmos 1953 3.8 16:33:28 14° E 16:34:28 15° E 16:36:41 10° NE
Cosmos 2242 Rocket 3.7 16:31:04 10° NNW 16:35:37 88° W 16:40:06 10° SSE
Cosmos 1633 Rocket 3.3 16:33:27 10° SSW 16:37:52 77° WNW 16:42:17 10° NNE
Cosmos 2322 4.0 16:33:01 10° WNW 16:38:41 60° NNE 16:43:33 14° E
Cosmos 2279 Rocket 4.0 16:32:34 10° S 16:38:46 84° ESE 16:45:01 10° NNE
Meteor 1-21 Rocket 4.4 16:34:17 10° NNW 16:39:52 54° ENE 16:45:19 10° SE
Cosmos 220 Rocket 4.3 16:35:55 10° S 16:40:01 43° ESE 16:44:07 10° NE
Cosmos 1975 Rocket 4.2 16:36:46 10° N 16:40:37 27° NE 16:43:28 15° E
ERS-1 Rocket 4.1 16:37:23 14° E 16:40:50 27° NE 16:45:02 10° NNW
MOS 1-B Rocket 4.5 16:33:33 10° SSE 16:41:17 86° WSW 16:47:52 10° NNW
Cosmos 540 Rocket 4.0 16:37:03 10° NW 16:42:02 46° NNE 16:46:05 15° E
Cosmos 1634 Rocket 4.2 16:36:56 10° SSW 16:43:16 77° WNW 16:49:35 10° NNE
Resurs 1-3 3.5 16:39:09 10° SSE 16:43:30 77° ENE 16:47:52 10° NNW
ATLAS CENTAUR R/B 3.3 16:40:33 10° W 16:43:53 26° SW 16:47:19 10° SSE
Okean O Rocket 2.3 16:40:31 13° ESE 16:43:57 35° NE 16:47:53 10° NNW
ACS3 Solar Sail 2.0 16:37:49 10° SE 16:43:58 55° ENE 16:50:03 10° NNW
SKYMED 2 3.8 16:39:51 10° NNE 16:44:06 48° E 16:48:20 10° S
Cosmos 2322 Rocket 2.2 16:38:51 10° NW 16:44:34 88° NE 16:50:15 10° SE
Cosmos 1603 3.7 16:40:32 10° SW 16:46:11 86° NNW 16:51:51 10° NE
Cosmos 1346 Rocket 2.8 16:43:27 10° SSW 16:47:17 83° WNW 16:51:09 10° NNE
Ariane Rocket 4.3 16:44:08 14° E 16:47:20 25° NNE 16:51:23 10° NNW
Cosmos 1733 Rocket 3.9 16:44:40 10° SE 16:48:25 28° E 16:52:11 10° NNE
Cosmos 2333 4.2 16:42:44 10° WNW 16:48:26 77° NNE 16:53:22 14° ESE
Helios 1A 4.4 16:46:27 10° NE 16:49:08 17° E 16:49:16 17° E
Cosmos 1607 4.1 16:43:26 10° W 16:49:51 78° S 16:55:09 15° ESE
Cosmos 2237 Rocket 2.6 16:45:32 10° WNW 16:51:07 55° N 16:55:44 15° ENE
Cosmos 1709 Rocket 4.4 16:45:29 10° NNW 16:51:35 45° NE 16:57:21 11° SE
Cosmos 724 4.3 16:46:04 10° W 16:51:57 82° S 16:56:47 16° ESE
Landsat 7 4.4 16:48:24 10° S 16:53:05 62° WSW 16:57:46 10° NNW
Cosmos 1025 Rocket 3.4 16:51:07 10° NNW 16:55:13 44° ENE 16:58:41 14° SE
CZ-2C R/B 3.8 16:52:09 10° S 16:55:31 43° W 16:58:55 10° NNW
Helios 1B rocket 2.7 16:52:34 10° S 16:56:22 65° WSW 17:00:12 10° NNW
Cosmos 1763 Rocket 3.8 16:51:40 10° NW 16:56:50 55° NNE 17:00:46 17° ESE
ARIANE 6 FM1 Upper Stage 4.0 16:53:08 10° W 16:57:06 35° SSW 17:00:59 10° SE
Cosmos 1538 Rocket 4.5 16:51:56 10° WSW 16:57:12 63° NW 17:02:27 10° NE
Cosmos 2333 Rocket 2.2 16:54:29 10° NW 17:00:15 89° SW 17:05:18 14° SE
MOS 1 Rocket 4.2 16:57:10 17° ESE 17:00:34 35° NE 17:05:01 10° NNW
Cosmos 1992 Rocket 4.5 16:55:46 10° NW 17:00:57 63° WSW 17:06:07 10° SSE
Cosmos 1271 Rocket 4.4 16:58:30 10° N 17:01:05 17° NE 17:02:13 16° ENE
CZ-4B R/B 3.2 16:56:03 10° SE 17:01:18 63° ENE 17:06:37 10° NNW
CARTOSAT-1 3.6 16:57:10 10° SE 17:01:21 59° ENE 17:05:34 10° NNW
MOS 1-B 4.5 16:55:45 10° SE 17:01:24 59° NE 17:07:06 10° NNW
Cosmos 1680 Rocket 3.5 16:56:51 10° SW 17:02:12 88° SE 17:07:33 10° NE
Cosmos 1470 3.3 17:01:27 10° SW 17:05:02 55° WNW 17:08:39 10° NNE
Cosmos 1980 Rocket 3.9 17:00:32 10° NW 17:05:29 33° WSW 17:10:26 10° S
CRYOSAT 2 4.5 17:01:28 10° N 17:06:16 52° E 17:11:03 10° SSE
Meteor 1-22 Rocket 4.1 17:01:42 10° S 17:06:53 60° ESE 17:12:11 10° NNE
Cosmos 1892 3.2 17:03:51 10° NNW 17:07:15 55° W 17:10:39 10° S
ADEOS 3.6 17:02:01 10° SSE 17:07:16 85° WSW 17:12:32 10° NNW
Cosmos 923 Rocket 4.2 17:02:34 10° SW 17:07:53 79° NW 17:13:15 10° NE
CSL-04 Rocket 3.7 17:03:08 10° SE 17:08:24 65° ENE 17:13:46 10° NNW
Cosmos 1833 Rocket 2.8 17:03:30 10° SSW 17:08:57 52° SE 17:14:25 10° NE
Cosmos 1674 Rocket 3.4 17:05:01 10° NNW 17:09:21 79° ENE 17:13:41 10° SSE
Terra 2.8 17:07:03 19° E 17:09:24 29° NE 17:13:28 10° NNW
Meteor 1-15 Rocket 4.2 17:05:08 10° S 17:10:45 63° ESE 17:16:19 10° NNE
Meteor PRIRODA 3.2 17:07:50 10° SSE 17:11:06 86° ENE 17:14:24 10° NNW
CZ-4B R/B 3.6 17:06:13 10° SSE 17:11:25 84° WSW 17:16:44 10° NNW
COSMOS 2406 4.2 17:08:49 10° SSE 17:13:15 24° ESE 17:17:41 10° NE
CZ-4B DEB 4.2 17:10:15 10° SSE 17:15:43 85° WSW 17:21:13 10° NNW
Cosmos 921 Rocket 3.1 17:13:29 10° SSW 17:17:54 59° ESE 17:22:19 10° NE
Cosmos 1048 Rocket 4.0 17:13:06 10° SSW 17:18:14 57° ESE 17:23:19 10° NE
Cosmos 841 Rocket 4.1 17:13:31 10° NW 17:18:29 44° NNE 17:21:33 22° E
Cosmos 2082 Rocket 2.9 17:14:15 10° S 17:19:01 29° ESE 17:23:50 10° NE
Cosmos 1300 2.3 17:16:22 10° SSW 17:19:50 81° ESE 17:23:19 10° NNE
PSLV R/B 4.2 17:19:14 28° E 17:20:13 34° NE 17:23:24 10° N
SL-24 R/B 3.8 17:17:46 10° SSE 17:21:45 81° WSW 17:25:29 10° NNW
SL-08 R/B 4.4 17:15:38 10° NNW 17:21:47 88° ENE 17:27:58 10° SSE
Cosmos 1455 2.4 17:22:13 22° SE 17:23:44 34° E 17:26:50 10° NNE
Cosmos 1378 Rocket 3.8 17:19:58 10° NNW 17:24:25 75° WSW 17:28:51 10° S
Cosmos 1980 4.0 17:20:45 10° WNW 17:26:23 58° NNE 17:30:00 22° E
Cosmos 1470 Rocket 4.4 17:22:30 10° SW 17:26:48 51° WNW 17:31:04 10° NNE
Cosmos 494 Rocket 3.8 17:23:09 10° SSW 17:28:16 77° SE 17:33:24 10° NE
SAR-Lupe-2 3.7 17:25:01 10° SSE 17:28:35 77° WSW 17:32:12 10° NNW
CENTAUR R/B 4.2 17:25:36 10° SSE 17:26:40 13° SE 17:26:40 13° SE
In-Cosmos 22 Rocket 4.2 17:23:58 10° NNW 17:29:50 77° ENE 17:35:17 12° SSE
YAOGAN 1 4.0 17:26:26 10° SSW 17:30:29 39° W 17:34:33 10° NNW
Feng Yun 1-1 Rocket 4.3 17:25:17 10° SSE 17:31:10 84° ENE 17:36:55 10° NNW
SL-16 R/B 2.9 17:25:45 10° NW 17:31:16 54° SW 17:36:47 10° SSE
SJ-6B 3.2 17:27:38 10° S 17:31:21 61° WSW 17:35:10 10° NNW
COSMO-SKYMED 1 2.6 17:27:54 10° NNE 17:32:18 88° WNW 17:36:40 10° SSW
CZ-4C R/B 2.7 17:27:56 10° SSW 17:32:43 41° SE 17:36:08 23° E
COSMOS 2428 2.8 17:27:39 10° WNW 17:33:26 71° NNE 17:36:50 25° ESE
Meteor 2-10 Rocket 3.7 17:27:37 10° SSW 17:33:27 82° ESE 17:39:17 10° NNE
SPOT 1/Viking Rocket 4.0 17:28:27 10° S 17:33:33 62° WSW 17:38:41 10° NNW
USA 186 1.5 17:32:52 27° SSE 17:34:23 86° ENE 17:37:23 10° NNW
Cosmos 1758 3.1 17:31:07 10° SSW 17:34:59 86° ESE 17:38:55 10° NNE
SL-08 R/B 3.6 17:31:42 10° NNE 17:36:19 43° E 17:40:50 10° S
Cosmos 1908 Rocket 4.4 17:36:50 28° E 17:36:50 28° E 17:40:26 10° NNE
Meteor 1-11 4.2 17:31:58 10° NNW 17:37:47 71° ENE 17:42:09 18° SE
Cosmos 1869 Rocket 3.6 17:33:48 10° SSW 17:38:14 85° WNW 17:42:44 10° NNE
SPOT 3 Rocket 4.3 17:36:18 25° E 17:38:28 36° NE 17:43:10 10° NNW
CZ-4B R/B 3.1 17:34:51 10° SSE 17:39:03 76° WSW 17:43:08 10° NNW
Cosmos 1825 3.9 17:36:13 10° NNW 17:39:05 29° W 17:41:56 10° SSW
Cosmos 2221 Rocket 3.7 17:36:20 10° NNW 17:40:45 75° WSW 17:45:09 10° S
Cosmos 468 Rocket 4.1 17:36:07 10° NW 17:41:25 65° NE 17:44:08 29° ESE
Cosmos 972 Rocket 4.4 17:37:16 10° SSE 17:41:39 33° ESE 17:46:04 10° NE
Meteor 1-16 Rocket 4.3 17:38:11 10° S 17:43:36 53° E 17:49:13 10° NNE
Cosmos 1328 4.2 17:40:34 10° NNW 17:44:17 58° W 17:47:58 10° S
GEOS 3 Rocket 3.5 17:41:34 27° E 17:44:29 79° S 17:49:38 10° W
USA 281 3.2 17:38:08 10° NE 17:44:46 82° SE 17:51:22 10° SW
Cosmos 1933 Rocket 4.2 17:40:48 10° SW 17:45:11 59° WNW 17:49:36 10° NNE
CSL-04 Debris 4.2 17:43:07 10° SSE 17:48:34 83° WSW 17:54:00 10° NNW
PAYLOAD B 4.5 17:43:17 10° SSE 17:48:51 70° WSW 17:54:24 10° NNW
Meteor 1-12 Rocket 4.2 17:43:05 10° SSW 17:48:54 78° ESE 17:54:52 10° NNE
Cosmos 2219 Rocket 2.2 17:43:51 10° NW 17:49:31 83° SW 17:52:45 26° SE
Spot 2 Rocket 4.0 17:47:42 30° E 17:49:39 42° NE 17:54:28 10° NNW
USA 234 4.2 17:46:22 18° SE 17:50:32 36° SSW 17:56:30 10° W
Cosmos 1461 2.6 17:47:14 10° WSW 17:50:59 70° S 17:52:01 44° ESE
Cosmos 1745 Rocket 4.0 17:46:14 10° NNW 17:52:39 89° ENE 17:59:01 10° SSE
Cosmos 468 4.4 17:48:24 10° SSW 17:53:37 68° SE 17:58:49 10° NE
Cosmos 2360 Rocket 2.5 17:48:18 10° NW 17:53:51 62° SW 17:57:45 20° SSE
Cosmos 405 Rocket 3.8 17:55:53 27° NE 17:55:53 27° NE 17:57:56 10° NNE
Lacrosse 5 3.1 17:51:16 10° WSW 17:55:35 28° S 17:57:23 23° SSE
Okean-O 2.6 17:54:20 35° SE 17:56:05 63° ENE 18:00:27 10° NNW
Cosmos 1943 3.7 17:54:15 10° W 17:59:52 57° N 18:03:53 19° ENE
SPOT 5 2.7 17:58:26 34° SE 18:00:18 68° ENE 18:04:59 10° NNW
SL-16 R/B 4.1 17:55:18 10° NNE 18:00:46 33° NNW 18:06:11 10° W
Resurs 01 Rocket 2.0 17:58:17 11° S 18:02:25 62° WSW 18:06:49 10° NNW
Cosmos 2112 Rocket 4.5 17:57:29 10° WSW 18:02:48 63° NW 18:08:08 10° NE
YAOGAN 11 4.2 17:58:44 10° NNE 18:03:04 75° WNW 18:07:28 10° SSW
Cosmos 614 Rocket 4.1 18:02:04 10° S 18:07:00 48° ESE 18:12:00 10° NE
DMSP B5D1-3 4.4 18:01:59 10° NNE 18:07:08 76° ESE 18:12:16 10° SSW
CZ-4 R/B 2.4 18:03:37 10° S 18:07:31 45° W 18:11:26 10° NNW
ARIANE 5 R/B 4.3 18:06:48 18° NE 18:07:46 19° NNE 18:10:56 10° NNW
S3M 4.2 18:03:00 16° SSE 18:07:47 48° E 18:13:53 10° NNE
Cosmos 1953 2.0 18:08:19 40° SSE 18:09:27 63° ESE 18:13:13 10° NNE
Cosmos 1437 Rocket 3.9 18:06:31 10° NNW 18:09:53 38° W 18:13:02 11° SSW
Lacrosse 5 rocket 3.3 18:11:02 10° SSW 18:11:58 14° SSW 18:11:58 14° SSW
NOSS 0 Rocket 3.9 18:08:33 10° WNW 18:14:49 85° NNE 18:17:34 36° ESE
SL-16 R/B 2.6 18:09:29 10° WNW 18:15:06 56° N 18:17:53 29° ENE
Cosmos 2315 Rocket 4.3 18:14:05 33° SE 18:16:07 42° E 18:22:00 10° NNE
Cosmos 220 Rocket 4.4 18:13:32 10° WSW 18:17:51 63° NW 18:21:40 13° NE
MetOp-B 4.1 18:15:28 32° SSE 18:18:05 82° ENE 18:23:29 10° NNW
ERS-1 Rocket 2.9 18:17:18 41° SE 18:18:59 67° ENE 18:24:00 10° NNW
Cosmos 1975 Rocket 3.0 18:14:30 10° NNW 18:19:01 85° ENE 18:20:31 42° SSE
TRACE 4.3 18:15:48 10° NNE 18:19:08 83° WNW 18:22:28 10° SSW
COSMOS 2455 4.2 18:14:13 10° S 18:16:27 20° SSE 18:16:27 20° SSE
Okean O Rocket 1.7 18:17:51 29° S 18:20:00 72° WSW 18:24:22 10° NNW
Cosmos 1932 4.4 18:15:41 10° SW 18:21:49 66° SSE 18:24:42 33° E
Cosmos 1417 Rocket 4.5 18:16:15 10° S 18:22:28 61° E 18:28:41 10° NNE
Cosmos 2322 3.7 18:17:29 10° NW 18:23:13 83° SW 18:25:28 39° SE
Cosmos 540 Rocket 3.4 18:18:50 10° NW 18:24:01 85° SW 18:25:49 42° SE
Helios 1A 2.8 18:20:51 10° NNE 18:24:56 63° ESE 18:25:16 60° SE
Ariane Rocket 3.2 18:24:15 43° ESE 18:25:30 55° NE 18:30:29 10° NNW
Cosmos 1733 Rocket 3.1 18:21:24 10° SSW 18:25:48 77° WNW 18:30:14 10° NNE
ACS3 Solar Sail 2.3 18:21:39 10° S 18:27:57 60° W 18:34:10 10° NNW
MOS 1 4.3 18:25:00 27° SSE 18:28:12 82° WSW 18:33:53 10° NNW
Cosmos 2322 Rocket 3.2 18:23:03 10° NW 18:28:19 41° WSW 18:32:02 18° S
ASTEX 1 3.8 18:28:00 40° ENE 18:28:21 41° ENE 18:32:57 10° N
USA 245 4.3 18:27:43 40° SE 18:29:46 69° ENE 18:36:02 10° NNW
Cosmos 839 Rocket 4.0 18:24:18 10° WNW 18:30:39 70° SSW 18:33:00 39° SE
Cosmos 1603 4.2 18:25:14 10° W 18:30:47 56° N 18:34:11 23° ENE
Cosmos 1025 Rocket 3.8 18:28:43 10° NNW 18:32:49 48° W 18:35:29 20° SSW
Cosmos 2237 Rocket 2.2 18:30:04 10° WNW 18:35:46 75° NNE 18:37:32 45° ESE
Cosmos 1607 4.4 18:30:39 10° WNW 18:36:49 53° SW 18:39:15 34° SSE
SKYMED 3 4.3 18:32:56 10° NNE 18:37:01 88° WNW 18:40:16 15° SSW
Cosmos 1271 Rocket 3.1 18:33:22 10° NNW 18:36:30 47° NNE 18:36:30 47° NNE
Cosmos 1709 Rocket 4.2 18:31:06 10° NNW 18:37:26 73° W 18:42:00 20° S
IRS-1C Rocket 4.0 18:35:53 45° SE 18:37:34 81° ENE 18:42:52 10° NNW
MOS 1 Rocket 3.4 18:36:19 37° SSE 18:38:24 83° WSW 18:43:22 10° NNW
Cosmos 1763 Rocket 3.7 18:33:35 10° NW 18:38:48 65° WSW 18:40:43 38° S
Cosmos 1553 Rocket 3.9 18:33:26 10° SSW 18:39:32 89° WNW 18:45:40 10° NNE
Meteor 2-11 Rocket 4.4 18:35:29 10° NNW 18:41:37 74° ENE 18:43:44 43° SE
CZ-4B R/B 4.1 18:37:16 11° S 18:42:08 45° W 18:47:19 10° NNW
Cosmos 2333 Rocket 3.3 18:38:55 10° NW 18:44:10 39° WSW 18:47:19 21° S
Cosmos 1680 Rocket 4.5 18:39:37 10° W 18:44:45 46° NNW 18:49:44 11° NE
ALOS 2 4.4 18:45:00 19° NE 18:45:34 19° NNE 18:48:39 10° N
Terra 1.7 18:45:44 61° SE 18:46:33 82° ENE 18:51:18 10° NNW
Cosmos 2184 Rocket 4.0 18:43:00 10° NNW 18:49:25 72° ENE 18:51:29 45° SE
IRS-1A Rocket 4.2 18:47:41 41° SSE 18:49:42 83° WSW 18:55:16 10° NNW
Cosmos 2058 4.1 18:48:35 10° N 18:51:38 30° NE 18:51:38 30° NE
Cosmos 1833 Rocket 2.8 18:47:08 10° WSW 18:52:48 76° NNW 18:57:00 19° NE
PSLV R/B 4.1 18:53:22 51° W 18:53:22 51° W 18:56:45 10° NNW
Cosmos 1536 Rocket 3.5 18:50:49 10° NNW 18:54:58 65° NE 18:54:58 65° NE
Cosmos 1241 Rocket 4.4 18:48:58 10° SW 18:55:19 68° SSE 18:57:49 39° E
Cosmos 921 Rocket 4.0 18:51:53 10° WSW 18:56:14 48° NW 19:00:35 10° NE
COSMOS 2406 3.1 18:51:03 10° SSW 18:56:40 62° SE 19:02:20 10° NE
Cosmos 1455 3.0 18:55:13 16° SW 18:57:38 44° WNW 19:00:55 10° NNE
Cosmos 1048 Rocket 4.5 18:55:09 10° WSW 19:00:20 60° NW 19:05:28 10° NE
Cosmos 841 Rocket 3.3 18:55:37 10° NW 19:00:48 89° NE 19:01:33 67° SE
Cosmos 2082 Rocket 2.0 18:56:50 10° SW 19:02:28 74° SE 19:07:02 16° NE
H-2A R/B 4.4 19:02:53 17° NNE 19:02:53 17° NNE 19:05:25 10° N
SL-24 DEB 4.1 19:01:19 10° N 19:05:41 71° ENE 19:05:41 71° ENE
USA 186 4.3 19:05:19 14° WSW 19:06:25 16° W 19:08:27 10° NW
Cosmos 1980 3.6 19:05:08 10° NW 19:10:52 87° SW 19:11:48 64° SE
Cosmos 1908 Rocket 3.6 19:13:51 71° WSW 19:14:11 76° WNW 19:18:33 10° NNE
SL-08 R/B 3.8 19:09:28 10° NNE 19:14:15 60° WNW 19:18:55 10° SW
SL-16 R/B 4.4 19:10:21 10° WNW 19:14:21 20° WSW 19:18:21 10° SSW
Cosmos 2074 Rocket 3.9 19:08:26 10° NNW 19:14:43 89° SW 19:16:26 51° SSE
SPOT 3 Rocket 3.4 19:16:53 71° SSE 19:17:30 88° WSW 19:22:44 10° NNW
COSMOS 2428 3.0 19:12:05 10° NW 19:17:44 59° SW 19:18:48 50° S
CENTAUR R/B 4.2 19:12:30 10° SSW 19:28:01 - ENE 19:13:55 17° SSW
CZ-4C R/B 2.3 19:15:05 10° WSW 19:20:29 66° SSE 19:21:10 61° SE
Cosmos 1814 Rocket 3.9 19:15:42 10° NW 19:20:50 67° NE 19:21:08 65° ENE
GEOS 3 Rocket 3.6 19:22:38 64° S 19:22:50 65° SSW 19:27:57 10° WNW
Cosmos 468 Rocket 4.5 19:18:09 10° NW 19:23:18 52° WSW 19:24:12 47° SSW
Cosmos 972 Rocket 3.9 19:21:44 10° SW 19:26:40 79° NW 19:31:42 10° NE
Spot 2 Rocket 3.6 19:27:50 62° SSW 19:28:27 69° WSW 19:33:35 10° NNW
Cosmos 1461 4.1 19:24:58 10° W 19:27:13 33° W 19:27:13 33° W
USA 281 3.8 19:22:46 10° NE 19:29:10 57° NNW 19:35:35 10° W
Cosmos 405 Rocket 3.8 19:29:50 40° NNW 19:29:50 40° NNW 19:32:52 10° NNE
Okean-O 3.8 19:31:46 32° SW 19:32:44 36° W 19:36:50 10° NNW
Cosmos 2219 Rocket 3.3 19:27:59 10° NW 19:32:59 34° WSW 19:34:27 29° SW
Cosmos 1610 Rocket 4.4 19:26:37 10° NNW 19:33:01 84° ENE 19:34:06 64° SSE
Cosmos 1782 Rocket 4.3 19:36:53 46° N 19:36:53 46° N 19:40:01 10° NNE
Cosmos 2154 Rocket 4.0 19:30:12 10° NNW 19:36:33 83° WSW 19:37:53 58° S
Cosmos 2360 Rocket 4.0 19:32:39 10° WNW 19:37:00 23° WSW 19:39:29 17° SW
Lacrosse 5 3.8 19:33:54 10° WSW 19:36:34 18° SW 19:36:34 18° SW
SPOT 5 4.0 19:37:33 30° SW 19:38:42 35° W 19:42:59 10° NNW
Cosmos 2366 rocket 4.1 19:32:42 10° NNW 19:38:53 57° ENE 19:39:22 56° E
Resurs 01 Rocket 4.2 19:36:45 10° SW 19:39:43 18° W 19:42:42 10° NW
Cosmos 1300 Rocket 4.5 19:41:37 41° NNE 19:41:37 41° NNE 19:44:31 10° NNE
Cosmos 962 Rocket 4.4 19:34:51 10° NNW 19:41:12 72° ENE 19:41:50 67° ESE
Nadezhda 1 Rocket 4.5 19:42:17 45° ENE 19:42:17 45° ENE 19:47:46 10° NNE
CZ-4 R/B 4.4 19:41:17 10° WSW 19:42:59 12° WNW 19:44:42 10° NW
ARIANE 5 R/B 3.6 19:44:14 40° NNE 19:44:14 40° NNE 19:47:37 10° NNW
Cosmos 883 Rocket 4.5 19:41:07 36° SSW 19:43:50 81° WNW 19:50:09 10° NNE
Cosmos 1943 3.5 19:38:58 10° WNW 19:44:38 60° NNE 19:45:39 51° ENE
Cosmos 1953 4.0 19:43:10 17° WSW 19:45:23 31° NW 19:48:48 10° N
Cosmos 158 Rocket 4.3 19:43:07 10° NW 19:48:14 58° NE 19:48:19 58° NE
Cosmos 614 Rocket 4.2 19:43:21 10° WSW 19:48:31 67° NW 19:53:44 10° NE
Cosmos 2341 Rocket 3.9 19:43:11 10° NNW 19:49:27 69° ENE 19:49:53 67° E
S3M 4.3 19:47:36 14° SW 19:53:07 65° WNW 19:59:32 10° NNE
Cosmos 2327 Rocket 4.3 19:47:44 10° NNW 19:53:55 88° ENE 19:54:27 76° SSE
Okean O Rocket 3.8 19:55:11 16° WSW 19:57:01 20° W 20:00:14 10° NW
ERS-1 Rocket 3.9 19:57:13 37° WSW 19:58:04 40° W 20:02:48 10° NNW
SL-16 R/B 2.1 19:54:00 10° NW 19:59:43 83° NE 19:59:43 83° NE
Helios 1A 4.4 19:56:03 10° NNE 19:59:50 37° NW 20:01:18 27° W
NOSS 0 Rocket 4.4 19:55:07 10° NW 20:01:03 48° SW 20:01:32 47° SW
Cosmos 2315 Rocket 4.1 19:58:54 38° SW 20:01:28 72° WNW 20:07:50 10° NNE
Cosmos 2208 Rocket 4.4 19:57:11 10° NW 20:02:37 59° NE 20:02:40 59° NE
Ariane Rocket 3.5 20:04:23 51° WSW 20:04:33 51° WSW 20:09:33 10° NNW
ASTEX 1 3.8 20:07:24 60° WNW 20:07:24 60° WNW 20:12:04 10° N
Meteor 2-3 Rocket 3.8 20:01:26 10° NNW 20:07:04 67° NE 20:07:04 67° NE
Cosmos 1932 4.3 20:03:01 10° W 20:09:06 80° SSW 20:09:06 80° SSW
Cosmos 1570 Rocket 4.2 20:05:18 10° NW 20:10:07 65° N 20:10:07 65° N
ACS3 Solar Sail 3.9 20:08:19 10° SW 20:13:09 22° WNW 20:17:56 10° NNW
Cosmos 1603 4.0 20:10:01 10° WNW 20:15:36 60° NNE 20:16:02 58° NE
Cosmos 2237 Rocket 2.6 20:14:16 10° NW 20:19:19 52° WSW 20:19:19 52° WSW
Cosmos 864 Rocket 4.4 20:14:08 10° NNW 20:20:31 83° ENE 20:20:36 82° E
ALOS 2 3.9 20:22:24 35° NNE 20:22:24 35° NNE 20:25:19 10° NNW
Terra 3.2 20:24:25 30° W 20:24:39 30° W 20:28:50 10° NNW
MetOp-A 4.3 20:25:26 61° NW 20:25:26 61° NW 20:29:36 10° NNW
Cosmos 1821 Rocket 4.0 20:19:08 10° NNW 20:25:14 66° ENE 20:25:14 66° ENE
SL-8 Rocket 3.9 20:25:43 10° NNW 20:31:59 84° WSW 20:31:59 84° WSW
H-2A R/B 4.3 20:38:40 26° N 20:38:40 26° N 20:40:38 10° NNW
Cosmos 1833 Rocket 3.3 20:31:44 10° W 20:37:19 55° N 20:38:39 44° NE
COSMOS 2406 3.4 20:35:21 10° WSW 20:41:03 69° NNW 20:46:49 10° ENE
Cosmos 1241 Rocket 4.5 20:36:28 10° W 20:42:23 76° WSW 20:42:23 76° WSW
Cosmos 2082 Rocket 2.5 20:41:10 10° W 20:46:48 63° NNW 20:52:29 10° ENE
Cosmos 2098 Rocket 3.9 20:47:12 82° N 20:47:12 82° N 20:53:24 10° NNE
Cosmos 2218 Rocket 3.9 20:40:54 10° NNW 20:46:51 78° WNW 20:46:51 78° WNW
Cosmos 1934 Rocket 4.4 20:46:17 10° NNW 20:52:30 55° ENE 20:52:30 55° ENE
COSMOS 2428 4.4 20:56:44 10° WNW 21:00:47 22° WSW 21:00:47 22° WSW
CZ-4C R/B 3.3 21:02:50 10° W 21:06:13 38° W 21:06:13 38° W
USA 281 4.1 21:06:52 10° ENE 21:13:03 46° N 21:19:15 10° WNW
ARIANE 5 R/B 4.3 21:21:41 30° NW 21:21:41 30° NW 21:24:07 10° NNW
Cosmos 2366 rocket 4.4 21:18:20 10° NNW 21:24:02 53° W 21:24:02 53° W
SL-16 R/B 4.3 21:19:57 10° ENE 21:25:05 28° NNE 21:30:14 10° NW
Nadezhda 1 Rocket 4.2 21:26:53 68° WNW 21:26:55 68° WNW 21:33:20 10° NNE
Cosmos 1943 3.9 21:23:17 10° NW 21:27:25 49° WNW 21:27:25 49° WNW
SL-16 R/B 3.5 21:38:15 10° NW 21:41:34 32° WNW 21:41:34 32° WNW
CZ-2C R/B 3.7 21:57:35 38° NE 21:57:37 38° NE 22:02:40 10° NNW
Cosmos 2237 Rocket 4.2 21:58:51 10° WNW 22:01:07 17° W 22:01:07 17° W
Cosmos 2227 Rocket 3.9 22:05:37 23° ENE 22:05:37 23° ENE 22:07:59 10° NE
Cosmos 2297 Rocket 3.7 22:08:43 28° ENE 22:08:43 28° ENE 22:11:28 10° NE
Cosmos 2285 Rocket 4.5 22:08:46 53° ENE 22:08:46 53° ENE 22:13:32 10° NE
Cosmos 1680 Rocket 4.5 22:05:45 10° NW 22:10:10 46° N 22:10:10 46° N
Cosmos 1833 Rocket 3.5 22:16:16 10° WNW 22:20:17 45° NW 22:20:17 45° NW
Cosmos 2181 Rocket 4.2 22:23:20 68° NNW 22:23:20 68° NNW 22:29:09 10° NNE
COSMOS 2406 3.8 22:20:23 10° WNW 22:26:01 55° N 22:31:41 10° E
Cosmos 2100 Rocket 4.3 22:22:31 10° NNW 22:28:20 59° NE 22:28:20 59° NE
Cosmos 2082 Rocket 3.0 22:26:00 10° WNW 22:34:30 28° ENE 22:37:13 10° E
SeaSat 1 3.7 22:28:14 10° ENE 22:31:27 38° NE 22:31:27 38° NE
Cosmos 1934 Rocket 4.5 22:31:44 10° NNW 22:36:59 52° WNW 22:36:59 52° WNW
Cosmos 2263 Rocket 3.8 22:40:26 26° ENE 22:40:26 26° ENE 22:43:24 10° NE
Cosmos 1605 Rocket 4.3 22:40:42 10° NNW 22:45:35 56° NW 22:45:35 56° NW
SJ 16-02 3.4 22:52:19 23° NE 22:52:19 23° NE 22:54:02 10° NE
CZ-2D R/B 4.4 22:50:56 10° NE 22:53:59 15° ENE 22:55:07 14° E
Cosmos 1802 Rocket 4.3 22:47:58 10° NNW 22:54:23 64° ENE 22:54:26 64° ENE
USA 281 3.8 22:50:33 10° E 22:56:55 55° NNE 23:03:19 10° NW
CENTAUR R/B 3.9 23:02:28 36° ESE 23:02:28 36° ESE 23:07:22 10° ESE
Cosmos 1459 Rocket 4.1 22:53:57 10° NNW 22:59:59 73° NE 22:59:59 73° NE
SL-16 R/B 3.4 23:04:52 29° E 23:07:39 47° NE 23:13:36 10° NNW
Cosmos 1725 Rocket 4.1 23:06:07 10° NNW 23:12:27 68° ENE 23:12:28 68° ENE
H-2A R/B 4.1 23:09:29 10° NNE 23:11:25 24° NE 23:11:25 24° NE
Cosmos 1727 Rocket 4.4 23:18:49 54° E 23:18:49 54° E 23:24:43 10° NNE
Nadezhda 3 Rocket 4.3 23:23:04 61° NW 23:23:04 61° NW 23:29:08 10° NNE
COSMOS 2455 4.2 23:40:06 27° ESE 23:40:06 27° ESE 23:42:43 10° ESE
CZ-2C R/B 3.3 23:39:04 50° NNW 23:39:04 50° NNW 23:43:06 10° NNW
Cosmos 2219 3.8 23:39:28 52° E 23:39:28 52° E 23:44:03 10° NE
Meteor 2-13 Rocket 4.5 23:39:47 75° NE 23:39:47 75° NE 23:45:25 10° NNE
Cosmos 2016 Rocket 4.0 23:33:35 10° NNW 23:39:49 84° NNE 23:39:49 84° NNE
Resurs 1-4 Rocket 3.7 23:35:53 10° NNE 23:40:14 25° E 23:40:54 25° E
Cosmos 2227 Rocket 2.5 23:47:25 64° ENE 23:47:25 64° ENE 23:52:11 10° NE
Cosmos 1864 Rocket 4.5 23:40:26 10° NNW 23:46:10 76° NW 23:46:10 76° NW
IDEFIX/ARIANE 42P 3.7 23:42:18 10° NNE 23:47:07 35° E 23:47:07 35° E
Cosmos 2173 Rocket 4.2 23:42:23 10° NNW 23:47:28 58° NW 23:47:28 58° NW
Cosmos 1844 Rocket 4.1 23:49:05 28° ESE 23:49:05 28° ESE 23:53:33 10° NE
Cosmos 2297 Rocket 2.4 23:50:31 68° NNE 23:50:31 68° NNE 23:55:38 10° ENE
Cosmos 371 Rocket 4.2 23:54:20 45° NE 23:54:20 45° NE 23:57:42 10° NE
